Whiting Fld NAS, FL

9:53 PM CDT on August 22, 2017 (GMT -0500)
Whiting Field Naval Air Station (North)

Weather History for KNSE - June, 2014

Change the Weather History Date:

Thursday, June 19, 2014

  Actual Average Record
Temperature  
Mean Temperature 80 °F -  
Max Temperature 91 °F 85 °F 98 °F (1998)
Min Temperature 70 °F 69 °F 66 °F (2006)
Cooling Degree Days 16    
Growing Degree Days 30 (Base 50)    
Moisture  
Dew Point 70 °F    
Average Humidity 80    
Maximum Humidity 96    
Minimum Humidity 48    
Precipitation  
Precipitation 0.00 in - - ()
Sea Level Pressure  
Sea Level Pressure 30.07 in    
Wind  
Wind Speed 2 mph (WSW)    
Max Wind Speed 18 mph    
Max Gust Speed 25 mph    
Visibility 6 miles    
Events Fog , Rain , Thunderstorm    
Averages and records for this station are not official NWS values.
T = Trace of Precipitation, MM = Missing Value Source: NWS Daily Summary

Daily Weather History Graph

Daily Weather History Graph

Search for Another Location

Airport or City:

Trip Planner

Search our weather history database for the weather conditions in past years. The results will help you decide how hot, cold, wet, or windy it might be!

Date:

Astronomy

Jun. 19, 2014 Rise Set
Actual Time 5:45 AM CDT 7:53 PM CDT
Civil Twilight 5:17 AM CDT 8:21 PM CDT
Nautical Twilight 4:43 AM CDT 8:55 PM CDT
Astronomical Twilight 4:07 AM CDT 9:31 PM CDT
Moon 12:22 AM CDT (6/19) 12:47 PM CDT (6/19)
Length of Visible Light 15h 03m
Length of Day
14h 08m
Waning Gibbous, 51% of the Moon is Illuminated
Jun 19
Waning Gibbous
Jun 19
Last Quarter
Jun 27
New
Jul 5
First Quarter
Jul 12
Full

Hourly Weather History & Observations

Time (CDT) Temp. Heat Index Dew Point Humidity Pressure Visibility Wind Dir Wind Speed Gust Speed Precip Events Conditions
12:56 AM 73.0 °F - 70.0 °F 90% 30.04 in 1.8 mi Calm Calm - N/A   Clear
1:02 AM 73.0 °F - 70.0 °F 90% 30.09 in 3.0 mi Calm Calm - N/A   Clear
1:12 AM 73.0 °F - 71.1 °F 93% 30.09 in 1.8 mi Calm Calm - N/A   Clear
1:24 AM 73.0 °F - 70.0 °F 90% 30.09 in 3.0 mi Calm Calm - N/A   Clear
1:56 AM 73.0 °F - 70.0 °F 90% 30.04 in 3.0 mi Calm Calm - N/A   Clear
2:15 AM 72.0 °F - 70.0 °F 93% 30.08 in 1.8 mi Calm Calm - N/A   Scattered Clouds
2:36 AM 72.0 °F - 70.0 °F 93% 30.08 in 3.0 mi Calm Calm - N/A   Partly Cloudy
2:56 AM 72.0 °F - 69.1 °F 91% 30.03 in 3.0 mi Calm Calm - N/A   Clear
3:23 AM 71.1 °F - 69.1 °F 93% 30.07 in 1.8 mi Calm Calm - N/A   Clear
3:50 AM 71.6 °F - 69.8 °F 94% 30.08 in 3.0 mi Calm Calm - N/A   Clear
3:56 AM 72.0 °F - 70.0 °F 93% 30.04 in 3.0 mi Calm Calm - N/A   Clear
4:16 AM 71.1 °F - 69.1 °F 93% 30.09 in 1.8 mi Calm Calm - N/A   Clear
4:44 AM 71.1 °F - 69.1 °F 93% 30.09 in 0.8 mi Calm Calm - N/A   Mist
4:53 AM 71.6 °F - 69.8 °F 94% 30.09 in 0.5 mi Calm Calm - N/A Fog Fog
4:56 AM 71.1 °F - 69.1 °F 93% 30.05 in 0.5 mi Calm Calm - N/A Fog Fog
5:00 AM 72.0 °F - 70.0 °F 93% 30.10 in 1.0 mi Calm Calm - N/A   Mist
5:04 AM 71.1 °F - 70.0 °F 96% 30.10 in 2.0 mi Calm Calm - N/A   Scattered Clouds
5:12 AM 71.1 °F - 69.1 °F 93% 30.11 in 5.0 mi Calm Calm - N/A   Scattered Clouds
5:20 AM 72.0 °F - 69.1 °F 91% 30.10 in 6.0 mi Calm Calm - N/A   Mostly Cloudy
5:29 AM 72.0 °F - 69.1 °F 91% 30.11 in 7.0 mi Calm Calm - 0.00 in Rain Light Rain
5:56 AM 70.0 °F - 68.0 °F 93% 30.07 in 7.0 mi Calm Calm - 0.00 in   Mostly Cloudy
6:56 AM 75.9 °F - 72.0 °F 87% 30.08 in 7.0 mi Calm Calm - N/A   Scattered Clouds
7:56 AM 80.1 °F 83.8 °F 72.0 °F 76% 30.09 in 10.0 mi Calm Calm - N/A   Scattered Clouds
8:56 AM 82.9 °F 88.8 °F 73.0 °F 72% 30.10 in 10.0 mi Calm Calm - N/A   Scattered Clouds
9:56 AM 86.0 °F 90.1 °F 69.1 °F 57% 30.10 in 10.0 mi Calm Calm - N/A   Scattered Clouds
10:56 AM 88.0 °F 93.8 °F 71.1 °F 57% 30.10 in 10.0 mi Variable 3.5 mph - N/A   Scattered Clouds
11:56 AM 89.1 °F 94.1 °F 70.0 °F 53% 30.09 in 10.0 mi NNW 4.6 mph - N/A   Scattered Clouds
12:56 PM 90.0 °F 95.4 °F 70.0 °F 52% 30.07 in 10.0 mi Variable 3.5 mph - N/A   Scattered Clouds
1:56 PM 90.0 °F 94.5 °F 69.1 °F 50% 30.05 in 10.0 mi Variable 4.6 mph - N/A   Scattered Clouds
2:09 PM 91.0 °F 95.6 °F 69.1 °F 48% 30.09 in 10.0 mi Variable 6.9 mph - N/A Thunderstorm Thunderstorm
2:30 PM 84.0 °F 88.4 °F 70.0 °F 63% 30.09 in 10.0 mi South 18.4 mph 25.3 mph N/A   Mostly Cloudy
2:56 PM 80.1 °F 83.2 °F 70.0 °F 71% 30.05 in 10.0 mi SSE 10.4 mph - N/A   Mostly Cloudy
3:18 PM 82.0 °F 85.9 °F 70.0 °F 67% 30.09 in 10.0 mi SSW 9.2 mph - N/A   Mostly Cloudy
3:56 PM 82.9 °F 87.0 °F 70.0 °F 65% 30.03 in 10.0 mi SW 9.2 mph - N/A   Mostly Cloudy
4:56 PM 87.1 °F 94.5 °F 73.0 °F 63% 30.02 in 10.0 mi SSW 10.4 mph - N/A   Mostly Cloudy
5:56 PM 84.9 °F 90.7 °F 72.0 °F 65% 30.02 in 10.0 mi WSW 11.5 mph - N/A   Mostly Cloudy
6:03 PM 84.9 °F 90.7 °F 72.0 °F 65% 30.07 in 10.0 mi WSW 12.7 mph - N/A Thunderstorm Thunderstorm
6:37 PM 82.9 °F 88.0 °F 72.0 °F 69% 30.07 in 10.0 mi WNW 6.9 mph - N/A   Mostly Cloudy
6:48 PM 82.9 °F 88.0 °F 72.0 °F 69% 30.08 in 10.0 mi NW 5.8 mph - N/A Thunderstorm Thunderstorm
6:56 PM 82.9 °F 88.0 °F 72.0 °F 69% 30.04 in 10.0 mi Variable 3.5 mph - N/A Thunderstorm Thunderstorm
7:06 PM 82.9 °F 88.0 °F 72.0 °F 69% 30.08 in 10.0 mi East 12.7 mph - 0.00 in Rain , Thunderstorm Light Thunderstorms and Rain
7:56 PM 75.0 °F - 69.1 °F 82% 30.05 in 8.0 mi NNE 3.5 mph - 0.00 in Rain , Thunderstorm Light Thunderstorms and Rain
8:12 PM 75.0 °F - 68.0 °F 79% 30.10 in 9.0 mi NNE 4.6 mph - 0.00 in   Mostly Cloudy
8:56 PM 75.9 °F - 70.0 °F 82% 30.04 in 9.0 mi Calm Calm - 0.00 in   Mostly Cloudy
9:56 PM 73.9 °F - 70.0 °F 87% 30.05 in 10.0 mi Calm Calm - N/A   Scattered Clouds
10:45 PM 73.0 °F - 70.0 °F 90% 30.08 in 10.0 mi West 5.8 mph - N/A   Scattered Clouds
10:52 PM 73.4 °F - 69.8 °F 88% 30.08 in 2.0 mi Calm Calm - N/A   Mist
10:56 PM 73.0 °F - 70.0 °F 90% 30.04 in 2.0 mi North - - N/A   Mist
11:05 PM 73.0 °F - 70.0 °F 90% 30.08 in 1.8 mi Calm Calm - N/A   Mist
11:26 PM 73.0 °F - 70.0 °F 90% 30.08 in - North - - N/A   Unknown
11:36 PM 73.0 °F - 70.0 °F 90% 30.08 in 1.5 mi North - - N/A   Mist
11:56 PM 72.0 °F - 69.1 °F 91% 30.03 in 1.2 mi Calm Calm - N/A   Mist